GW0245 Weather Reports


Display with metric or nautical units.
time (UTC)temp
F
wind
direction
speed
MPH
gust
MPH
rain 1hr
in
rain 24hr
in
rain mn
in
humidity
%
barometer
mb
20260831043105 79 0 2.0 4.0 0.00 0.00 0.00 60 1016.9
20260831041601 80 0 0.0 3.0 0.00 0.00 0.00 57 1017.1
20260831040107 81 0 0.0 6.0 0.00 0.00 0.00 54 1017.0
20260831034612 81 218 1.0 5.0 0.00 0.02 0.00 54 1016.9
20260831033104 80 277 0.0 3.0 0.00 0.02 0.00 55 1016.8
20260831031600 80 0 0.0 4.0 0.00 0.02 0.00 55 1016.5
20260831030107 81 0 0.0 2.0 0.00 0.02 0.00 54 1016.1
20260831024605 82 0 0.0 6.0 0.00 0.02 0.00 52 1015.9
20260831023105 83 254 3.0 8.0 0.00 0.02 0.00 49 1015.8
20260831021609 83 269 4.0 8.0 0.00 0.02 0.00 49 1015.8
20260831020108 84 250 4.0 10.0 0.00 0.02 0.00 47 1015.8
20260831014623 84 268 5.0 10.0 0.00 0.02 0.00 47 1015.8
20260831013102 85 269 2.0 6.0 0.00 0.02 0.00 47 1015.7
20260831011604 85 271 2.0 6.0 0.00 0.02 0.00 46 1015.6
20260831010109 86 257 2.0 4.0 0.00 0.02 0.00 44 1015.6
20260831004605 87 241 2.0 9.0 0.00 0.06 0.00 42 1015.6
20260831003101 87 269 1.0 5.0 0.00 0.06 0.00 44 1015.5
20260831001620 88 201 1.0 5.0 0.00 0.06 0.00 41 1015.2
20260831000107 89 192 4.0 9.0 0.00 0.06 0.00 40 1015.3
20260830234606 89 239 2.0 7.0 0.00 0.07 0.00 40 1015.3
20260830233131 90 220 2.0 6.0 0.00 0.07 0.00 40 1015.4
20260830231611 90 231 5.0 13.0 0.00 0.07 0.00 40 1015.6
20260830230128 91 130 3.0 12.0 0.00 0.07 0.00 40 1015.6
20260830224606 92 192 1.0 6.0 0.00 0.07 0.00 37 1015.8
20260830223105 91 196 4.0 13.0 0.00 0.07 0.00 39 1016.1
20260830221607 90 144 3.0 9.0 0.00 0.07 0.00 40 1016.3
20260830220107 91 193 0.0 7.0 0.00 0.07 0.00 38 1016.5
20260830214608 90 248 5.0 12.0 0.00 0.07 0.00 41 1016.9
20260830213103 89 201 3.0 7.0 0.00 0.07 0.00 44 1017.1
20260830211605 90 153 6.0 11.0 0.00 0.07 0.00 39 1017.3
20260830210109 91 182 4.0 11.0 0.00 0.07 0.00 42 1017.5
20260830204606 89 182 3.0 9.0 0.00 0.07 0.00 40 1017.8
20260830203103 88 132 3.0 10.0 0.00 0.07 0.00 42 1018.1
20260830201609 88 145 3.0 15.0 0.00 0.07 0.00 44 1018.2
20260830200106 88 142 3.0 11.0 0.00 0.07 0.00 45 1018.5
20260830194612 88 92 5.0 12.0 0.00 0.28 0.00 46 1018.7
20260830193109 87 146 3.0 10.0 0.00 0.28 0.00 49 1018.8
20260830191609 86 99 3.0 12.0 0.00 0.28 0.00 49 1019.0
20260830190106 85 83 5.0 11.0 0.00 0.28 0.00 50 1019.2
20260830184602 86 97 1.0 9.0 0.00 0.39 0.00 52 1019.5
20260830183106 85 140 2.0 8.0 0.00 0.39 0.00 55 1019.7
20260830181606 84 68 2.0 10.0 0.00 0.39 0.00 56 1019.8
20260830180108 83 107 2.0 7.0 0.00 0.39 0.00 59 1019.9
20260830174617 81 144 2.0 9.0 0.00 0.39 0.00 64 1020.0
20260830173107 79 119 2.0 7.0 0.00 0.39 0.00 67 1020.1
20260830171609 78 87 2.0 6.0 0.00 0.39 0.00 71 1020.1
20260830170108 77 95 2.0 7.0 0.00 0.39 0.00 71 1020.3
20260830164604 76 84 2.0 7.0 0.00 0.39 0.00 75 1020.2
20260830163108 75 168 2.0 8.0 0.00 0.39 0.00 73 1020.6
20260830161607 74 0 2.0 7.0 0.00 0.39 0.00 73 1020.7
20260830160115 76 107 2.0 6.0 0.00 0.39 0.00 71 1020.7
20260830154557 76 89 2.0 4.0 0.00 0.39 0.00 70 1020.6
20260830153100 75 30 1.0 4.0 0.00 0.39 0.00 74 1020.4
20260830151605 74 0 0.0 3.0 0.00 0.39 0.00 75 1020.3
20260830150119 74 52 1.0 4.0 0.00 0.39 0.00 77 1020.2
20260830144606 74 0 1.0 2.0 0.00 0.39 0.00 76 1020.1
20260830143107 73 0 0.0 2.0 0.00 0.39 0.00 78 1020.1
20260830141606 70 0 0.0 0.0 0.00 0.39 0.00 84 1019.9
20260830140105 68 0 0.0 1.0 0.00 0.39 0.00 86 1020.0
20260830134605 67 0 0.0 3.0 0.00 0.39 0.00 88 1019.8
20260830133108 66 248 0.0 2.0 0.00 0.39 0.00 89 1019.6
20260830131607 65 276 0.0 2.0 0.00 0.39 0.00 89 1019.4
20260830130109 65 0 0.0 3.0 0.00 0.39 0.00 89 1019.1
20260830124602 65 0 0.0 2.0 0.00 0.39 0.00 89 1018.8
20260830123059 66 0 0.0 2.0 0.00 0.39 0.00 89 1018.5
20260830121607 66 276 1.0 3.0 0.00 0.39 0.00 89 1018.5
20260830120107 66 0 2.0 4.0 0.00 0.39 0.00 90 1018.6
20260830114613 65 264 1.0 4.0 0.00 0.39 0.00 91 1018.5
20260830113102 65 286 0.0 2.0 0.00 0.39 0.00 91 1018.6
20260830111606 65 0 0.0 2.0 0.00 0.39 0.00 91 1018.6
20260830110105 66 286 0.0 1.0 0.00 0.39 0.00 90 1018.7
20260830104601 66 0 0.0 2.0 0.00 0.39 0.00 90 1018.8
20260830103108 66 0 0.0 1.0 0.00 0.39 0.00 89 1018.8
20260830101607 67 0 0.0 2.0 0.00 0.39 0.00 89 1018.8
20260830100105 67 0 0.0 2.0 0.00 0.39 0.00 89 1019.0
20260830094605 67 0 0.0 2.0 0.00 0.39 0.00 88 1018.8
20260830093101 68 149 0.0 1.0 0.00 0.39 0.00 86 1018.8
20260830091607 69 0 0.0 0.0 0.00 0.39 0.00 83 1019.1
20260830090111 71 0 0.0 2.0 0.00 0.39 0.00 80 1019.2
20260830084604 71 0 0.0 7.0 0.00 0.39 0.00 77 1019.1
20260830083101 72 159 5.0 10.0 0.00 0.39 0.00 76 1019.2
20260830081600 70 115 1.0 7.0 0.00 0.39 0.00 80 1019.2
20260830080105 71 0 0.0 3.0 0.00 0.39 0.00 79 1019.1
20260830074606 71 0 0.0 4.0 0.00 0.39 0.00 76 1018.7
20260830073101 71 175 0.0 9.0 0.00 0.39 0.00 76 1018.8
20260830071605 70 0 0.0 4.0 0.00 0.39 0.00 79 1018.3
20260830070114 69 237 2.0 6.0 0.00 0.39 0.00 80 1018.2
20260830064605 69 243 2.0 4.0 0.00 0.39 0.39 83 1018.0
20260830063114 69 0 0.0 4.0 0.00 0.39 0.39 83 1017.9
20260830061612 69 272 0.0 3.0 0.00 0.39 0.39 85 1017.9
20260830060108 69 277 2.0 6.0 0.00 0.39 0.39 86 1018.1
20260830054605 70 0 0.0 4.0 0.00 0.39 0.39 86 1018.4
20260830053106 70 232 0.0 3.0 0.00 0.39 0.39 87 1018.5
20260830051613 70 0 0.0 0.0 0.00 0.39 0.39 86 1018.7
20260830050107 70 0 0.0 1.0 0.00 0.39 0.39 84 1018.5
20260830044609 71 0 0.0 2.0 0.00 0.39 0.39 84 1018.5